Year,Month,Day,Hour,Minute,Value (Times are PST for temperature in C)
2011,08,20,00,00,15.20
2011,08,20,00,01,15.10
2011,08,20,00,02,15.10
2011,08,20,00,03,15.10
2011,08,20,00,04,15.10
2011,08,20,00,05,15.10
2011,08,20,00,06,15.10
2011,08,20,00,07,15.10
2011,08,20,00,08,15.10
2011,08,20,00,09,15.10
2011,08,20,00,10,15.10
2011,08,20,00,11,15.10
2011,08,20,00,12,15.10
2011,08,20,00,13,15.00
2011,08,20,00,14,15.00
2011,08,20,00,15,15.00
2011,08,20,00,16,15.00
2011,08,20,00,17,15.00
2011,08,20,00,18,15.00
2011,08,20,00,19,15.00
2011,08,20,00,20,15.10
2011,08,20,00,21,15.10
2011,08,20,00,22,15.10
2011,08,20,00,23,15.10
2011,08,20,00,24,15.20
2011,08,20,00,25,15.20
2011,08,20,00,26,15.20
2011,08,20,00,27,15.20
2011,08,20,00,28,15.20
2011,08,20,00,29,15.20
2011,08,20,00,30,15.30
2011,08,20,00,31,15.30
2011,08,20,00,32,15.30
2011,08,20,00,33,15.30
2011,08,20,00,34,15.30
2011,08,20,00,35,15.40
2011,08,20,00,36,15.40
2011,08,20,00,37,15.40
2011,08,20,00,38,15.40
2011,08,20,00,39,15.50
2011,08,20,00,40,15.50
2011,08,20,00,41,15.50
2011,08,20,00,42,15.60
2011,08,20,00,43,15.60
2011,08,20,00,44,15.60
2011,08,20,00,45,15.60
2011,08,20,00,46,15.60
2011,08,20,00,47,15.60
2011,08,20,00,48,15.60
2011,08,20,00,49,15.60
2011,08,20,00,50,15.60
2011,08,20,00,51,15.60
2011,08,20,00,52,15.60
2011,08,20,00,53,15.60
2011,08,20,00,54,15.60
2011,08,20,00,55,15.60
2011,08,20,00,56,15.60
2011,08,20,00,57,15.60
2011,08,20,00,58,15.60
2011,08,20,00,59,15.60
2011,08,20,01,00,15.60
2011,08,20,01,01,15.60
2011,08,20,01,02,15.70
2011,08,20,01,03,15.70
2011,08,20,01,04,15.70
2011,08,20,01,05,15.70
2011,08,20,01,06,15.70
2011,08,20,01,07,15.70
2011,08,20,01,08,15.80
2011,08,20,01,09,15.80
2011,08,20,01,10,15.80
2011,08,20,01,11,15.70
2011,08,20,01,12,15.70
2011,08,20,01,13,15.70
2011,08,20,01,14,15.70
2011,08,20,01,15,15.70
2011,08,20,01,16,15.60
2011,08,20,01,17,15.60
2011,08,20,01,18,15.60
2011,08,20,01,19,15.60
2011,08,20,01,20,15.50
2011,08,20,01,21,15.50
2011,08,20,01,22,15.50
2011,08,20,01,23,15.50
2011,08,20,01,24,15.50
2011,08,20,01,25,15.50
2011,08,20,01,26,15.50
2011,08,20,01,27,15.40
2011,08,20,01,28,15.50
2011,08,20,01,29,15.40
2011,08,20,01,30,15.40
2011,08,20,01,31,15.40
2011,08,20,01,32,15.40
2011,08,20,01,33,15.40
2011,08,20,01,34,15.40
2011,08,20,01,35,15.40
2011,08,20,01,36,15.40
2011,08,20,01,37,15.40
2011,08,20,01,38,15.40
2011,08,20,01,39,15.40
2011,08,20,01,40,15.40
2011,08,20,01,41,15.40
2011,08,20,01,42,15.40
2011,08,20,01,43,15.40
2011,08,20,01,44,15.40
2011,08,20,01,45,15.40
2011,08,20,01,46,15.40
2011,08,20,01,47,15.40
2011,08,20,01,48,15.40
2011,08,20,01,49,15.40
2011,08,20,01,50,15.40
2011,08,20,01,51,15.40
2011,08,20,01,52,15.40
2011,08,20,01,53,15.40
2011,08,20,01,54,15.40
2011,08,20,01,55,15.40
2011,08,20,01,56,15.40
2011,08,20,01,57,15.50
2011,08,20,01,58,15.50
2011,08,20,01,59,15.50
2011,08,20,02,00,15.50
2011,08,20,02,01,15.50
2011,08,20,02,02,15.50
2011,08,20,02,03,15.50
2011,08,20,02,04,15.50
2011,08,20,02,05,15.50
2011,08,20,02,06,15.60
2011,08,20,02,07,15.60
2011,08,20,02,08,15.60
2011,08,20,02,09,15.60
2011,08,20,02,10,15.60
2011,08,20,02,11,15.60
2011,08,20,02,12,15.60
2011,08,20,02,13,15.60
2011,08,20,02,14,15.60
2011,08,20,02,15,15.60
2011,08,20,02,16,15.60
2011,08,20,02,17,15.60
2011,08,20,02,18,15.60
2011,08,20,02,19,15.60
2011,08,20,02,20,15.50
2011,08,20,02,21,15.50
2011,08,20,02,22,15.50
2011,08,20,02,23,15.50
2011,08,20,02,24,15.50
2011,08,20,02,25,15.50
2011,08,20,02,26,15.50
2011,08,20,02,27,15.50
2011,08,20,02,28,15.50
2011,08,20,02,29,15.60
2011,08,20,02,30,15.50
2011,08,20,02,31,15.50
2011,08,20,02,32,15.50
2011,08,20,02,33,15.50
2011,08,20,02,34,15.50
2011,08,20,02,35,15.50
2011,08,20,02,36,15.50
2011,08,20,02,37,15.40
2011,08,20,02,38,15.40
2011,08,20,02,39,15.40
2011,08,20,02,40,15.40
2011,08,20,02,41,15.40
2011,08,20,02,42,15.40
2011,08,20,02,43,15.30
2011,08,20,02,44,15.30
2011,08,20,02,45,15.30
2011,08,20,02,46,15.30
2011,08,20,02,47,15.30
2011,08,20,02,48,15.20
2011,08,20,02,49,15.20
2011,08,20,02,50,15.20
2011,08,20,02,51,15.20
2011,08,20,02,52,15.10
2011,08,20,02,53,15.10
2011,08,20,02,54,15.10
2011,08,20,02,55,15.10
2011,08,20,02,56,15.10
2011,08,20,02,57,15.00
2011,08,20,02,58,15.00
2011,08,20,02,59,15.00
2011,08,20,03,00,14.90
2011,08,20,03,01,14.90
2011,08,20,03,02,14.90
2011,08,20,03,03,14.90
2011,08,20,03,04,14.90
2011,08,20,03,05,14.90
2011,08,20,03,06,14.90
2011,08,20,03,07,14.90
2011,08,20,03,08,14.90
2011,08,20,03,09,14.90
2011,08,20,03,10,14.90
2011,08,20,03,11,14.90
2011,08,20,03,12,14.90
2011,08,20,03,13,14.90
2011,08,20,03,14,14.90
2011,08,20,03,15,14.90
2011,08,20,03,16,15.00
2011,08,20,03,17,15.00
2011,08,20,03,18,15.00
2011,08,20,03,19,15.00
2011,08,20,03,20,15.00
2011,08,20,03,21,15.00
2011,08,20,03,22,14.90
2011,08,20,03,23,14.90
2011,08,20,03,24,14.90
2011,08,20,03,25,14.90
2011,08,20,03,26,14.90
2011,08,20,03,27,14.90
2011,08,20,03,28,14.90
2011,08,20,03,29,14.90
2011,08,20,03,30,14.90
2011,08,20,03,31,14.90
2011,08,20,03,32,14.90
2011,08,20,03,33,14.90
2011,08,20,03,34,14.90
2011,08,20,03,35,14.90
2011,08,20,03,36,14.80
2011,08,20,03,37,14.80
2011,08,20,03,38,14.80
2011,08,20,03,39,14.80
2011,08,20,03,40,14.80
2011,08,20,03,41,14.80
2011,08,20,03,42,14.80
2011,08,20,03,43,14.80
2011,08,20,03,44,14.80
2011,08,20,03,45,14.80
2011,08,20,03,46,14.80
2011,08,20,03,47,14.80
2011,08,20,03,48,14.80
2011,08,20,03,49,14.80
2011,08,20,03,50,14.80
2011,08,20,03,51,14.80
2011,08,20,03,52,14.80
2011,08,20,03,53,14.80
2011,08,20,03,54,14.80
2011,08,20,03,55,14.80
2011,08,20,03,56,14.80
2011,08,20,03,57,14.80
2011,08,20,03,58,14.80
2011,08,20,03,59,14.80
2011,08,20,04,00,14.80
2011,08,20,04,01,14.80
2011,08,20,04,02,14.80
2011,08,20,04,03,14.80
2011,08,20,04,04,14.80
2011,08,20,04,05,14.80
2011,08,20,04,06,14.80
2011,08,20,04,07,14.70
2011,08,20,04,08,14.70
2011,08,20,04,09,14.70
2011,08,20,04,10,14.70
2011,08,20,04,11,14.70
2011,08,20,04,12,14.70
2011,08,20,04,13,14.70
2011,08,20,04,14,14.70
2011,08,20,04,15,14.70
2011,08,20,04,16,14.70
2011,08,20,04,17,14.70
2011,08,20,04,18,14.70
2011,08,20,04,19,14.70
2011,08,20,04,20,14.70
2011,08,20,04,21,14.60
2011,08,20,04,22,14.60
2011,08,20,04,23,14.60
2011,08,20,04,24,14.60
2011,08,20,04,25,14.60
2011,08,20,04,26,14.50
2011,08,20,04,27,14.50
2011,08,20,04,28,14.50
2011,08,20,04,29,14.50
2011,08,20,04,30,14.50
2011,08,20,04,31,14.50
2011,08,20,04,32,14.50
2011,08,20,04,33,14.50
2011,08,20,04,34,14.50
2011,08,20,04,35,14.50
2011,08,20,04,36,14.50
2011,08,20,04,37,14.40
2011,08,20,04,38,14.40
2011,08,20,04,39,14.40
2011,08,20,04,40,14.40
2011,08,20,04,41,14.40
2011,08,20,04,42,14.40
2011,08,20,04,43,14.40
2011,08,20,04,44,14.40
2011,08,20,04,45,14.40
2011,08,20,04,46,14.40
2011,08,20,04,47,14.40
2011,08,20,04,48,14.40
2011,08,20,04,49,14.40
2011,08,20,04,50,14.40
2011,08,20,04,51,14.40
2011,08,20,04,52,14.30
2011,08,20,04,53,14.30
2011,08,20,04,54,14.30
2011,08,20,04,55,14.30
2011,08,20,04,56,14.30
2011,08,20,04,57,14.20
2011,08,20,04,58,14.20
2011,08,20,04,59,14.20
2011,08,20,05,00,14.10
2011,08,20,05,01,14.10
2011,08,20,05,02,14.10
2011,08,20,05,03,14.10
2011,08,20,05,04,14.10
2011,08,20,05,05,14.10
2011,08,20,05,06,14.10
2011,08,20,05,07,14.10
2011,08,20,05,08,14.00
2011,08,20,05,09,14.00
2011,08,20,05,10,14.00
2011,08,20,05,11,14.00
2011,08,20,05,12,14.00
2011,08,20,05,13,14.00
2011,08,20,05,14,14.00
2011,08,20,05,15,14.00
2011,08,20,05,16,14.00
2011,08,20,05,17,14.00
2011,08,20,05,18,14.00
2011,08,20,05,19,13.90
2011,08,20,05,20,13.90
2011,08,20,05,21,13.90
2011,08,20,05,22,13.90
2011,08,20,05,23,13.90
2011,08,20,05,24,13.90
2011,08,20,05,25,13.80
2011,08,20,05,26,13.80
2011,08,20,05,27,13.80
2011,08,20,05,28,13.80
2011,08,20,05,29,13.80
2011,08,20,05,30,13.80
2011,08,20,05,31,13.80
2011,08,20,05,32,13.70
2011,08,20,05,33,13.70
2011,08,20,05,34,13.70
2011,08,20,05,35,13.70
2011,08,20,05,36,13.70
2011,08,20,05,37,13.70
2011,08,20,05,38,13.70
2011,08,20,05,39,13.70
2011,08,20,05,40,13.70
2011,08,20,05,41,13.80
2011,08,20,05,42,13.80
2011,08,20,05,43,13.80
2011,08,20,05,44,13.80
2011,08,20,05,45,13.80
2011,08,20,05,46,13.90
2011,08,20,05,47,13.90
2011,08,20,05,48,13.90
2011,08,20,05,49,13.90
2011,08,20,05,50,13.90
2011,08,20,05,51,13.90
2011,08,20,05,52,13.90
2011,08,20,05,53,13.90
2011,08,20,05,54,13.90
2011,08,20,05,55,13.90
2011,08,20,05,56,13.90
2011,08,20,05,57,13.80
2011,08,20,05,58,13.80
2011,08,20,05,59,13.80
2011,08,20,06,00,13.80
2011,08,20,06,01,13.80
2011,08,20,06,02,13.80
2011,08,20,06,03,13.80
2011,08,20,06,04,13.70
2011,08,20,06,05,13.70
2011,08,20,06,06,13.70
2011,08,20,06,07,13.70
2011,08,20,06,08,13.70
2011,08,20,06,09,13.60
2011,08,20,06,10,13.60
2011,08,20,06,11,13.60
2011,08,20,06,12,13.50
2011,08,20,06,13,13.50
2011,08,20,06,14,13.50
2011,08,20,06,15,13.50
2011,08,20,06,16,13.40
2011,08,20,06,17,13.40
2011,08,20,06,18,13.40
2011,08,20,06,19,13.40
2011,08,20,06,20,13.40
2011,08,20,06,21,13.40
2011,08,20,06,22,13.40
2011,08,20,06,23,13.40
2011,08,20,06,24,13.40
2011,08,20,06,25,13.40
2011,08,20,06,26,13.40
2011,08,20,06,27,13.40
2011,08,20,06,28,13.40
2011,08,20,06,29,13.40
2011,08,20,06,30,13.40
2011,08,20,06,31,13.40
2011,08,20,06,32,13.40
2011,08,20,06,33,13.40
2011,08,20,06,34,13.40
2011,08,20,06,35,13.40
2011,08,20,06,36,13.40
2011,08,20,06,37,13.40
2011,08,20,06,38,13.40
2011,08,20,06,39,13.50
2011,08,20,06,40,13.50
2011,08,20,06,41,13.50
2011,08,20,06,42,13.50
2011,08,20,06,43,13.50
2011,08,20,06,44,13.50
2011,08,20,06,45,13.50
2011,08,20,06,46,13.50
2011,08,20,06,47,13.50
2011,08,20,06,48,13.50
2011,08,20,06,49,13.50
2011,08,20,06,50,13.50
2011,08,20,06,51,13.40
2011,08,20,06,52,13.40
2011,08,20,06,53,13.40
2011,08,20,06,54,13.40
2011,08,20,06,55,13.40
2011,08,20,06,56,13.40
2011,08,20,06,57,13.40
2011,08,20,06,58,13.50
2011,08,20,06,59,13.50
2011,08,20,07,00,13.50
2011,08,20,07,01,13.60
2011,08,20,07,02,13.60
2011,08,20,07,03,13.60
2011,08,20,07,04,13.70
2011,08,20,07,05,13.70
2011,08,20,07,06,13.70
2011,08,20,07,07,13.80
2011,08,20,07,08,13.80
2011,08,20,07,09,13.80
2011,08,20,07,10,13.80
2011,08,20,07,11,13.90
2011,08,20,07,12,13.90
2011,08,20,07,13,13.90
2011,08,20,07,14,13.90
2011,08,20,07,15,13.90
2011,08,20,07,16,13.90
2011,08,20,07,17,14.00
2011,08,20,07,18,14.00
2011,08,20,07,19,14.00
2011,08,20,07,20,14.10
2011,08,20,07,21,14.10
2011,08,20,07,22,14.10
2011,08,20,07,23,14.10
2011,08,20,07,24,14.10
2011,08,20,07,25,14.10
2011,08,20,07,26,14.20
2011,08,20,07,27,14.20
2011,08,20,07,28,14.20
2011,08,20,07,29,14.20
2011,08,20,07,30,14.20
2011,08,20,07,31,14.20
2011,08,20,07,32,14.20
2011,08,20,07,33,14.30
2011,08,20,07,34,14.30
2011,08,20,07,35,14.30
2011,08,20,07,36,14.40
2011,08,20,07,37,14.40
2011,08,20,07,38,14.40
2011,08,20,07,39,14.50
2011,08,20,07,40,14.50
2011,08,20,07,41,14.60
2011,08,20,07,42,14.60
2011,08,20,07,43,14.60
2011,08,20,07,44,14.60
2011,08,20,07,45,14.70
2011,08,20,07,46,14.70
2011,08,20,07,47,14.80
2011,08,20,07,48,14.80
2011,08,20,07,49,14.90
2011,08,20,07,50,14.90
2011,08,20,07,51,15.00
2011,08,20,07,52,15.10
2011,08,20,07,53,15.10
2011,08,20,07,54,15.20
2011,08,20,07,55,15.20
2011,08,20,07,56,15.30
2011,08,20,07,57,15.30
2011,08,20,07,58,15.30
2011,08,20,07,59,15.40
2011,08,20,08,00,15.40
2011,08,20,08,01,15.50
2011,08,20,08,02,15.50
2011,08,20,08,03,15.50
2011,08,20,08,04,15.60
2011,08,20,08,05,15.60
2011,08,20,08,06,15.70
2011,08,20,08,07,15.70
2011,08,20,08,08,15.70
2011,08,20,08,09,15.80
2011,08,20,08,10,15.80
2011,08,20,08,11,15.80
2011,08,20,08,12,15.90
2011,08,20,08,13,15.90
2011,08,20,08,14,16.00
2011,08,20,08,15,16.00
2011,08,20,08,16,16.10
2011,08,20,08,17,16.10
2011,08,20,08,18,16.20
2011,08,20,08,19,16.30
2011,08,20,08,20,16.30
2011,08,20,08,21,16.30
2011,08,20,08,22,16.40
2011,08,20,08,23,16.50
2011,08,20,08,24,16.50
2011,08,20,08,25,16.60
2011,08,20,08,26,16.60
2011,08,20,08,27,16.70
2011,08,20,08,28,16.70
2011,08,20,08,29,16.80
2011,08,20,08,30,16.80
2011,08,20,08,31,16.80
2011,08,20,08,32,16.90
2011,08,20,08,33,17.00
2011,08,20,08,34,17.00
2011,08,20,08,35,17.10
2011,08,20,08,36,17.10
2011,08,20,08,37,17.20
2011,08,20,08,38,17.20
2011,08,20,08,39,17.30
2011,08,20,08,40,17.30
2011,08,20,08,41,17.40
2011,08,20,08,42,17.40
2011,08,20,08,43,17.50
2011,08,20,08,44,17.50
2011,08,20,08,45,17.60
2011,08,20,08,46,17.60
2011,08,20,08,47,17.60
2011,08,20,08,48,17.70
2011,08,20,08,49,17.70
2011,08,20,08,50,17.70
2011,08,20,08,51,17.80
2011,08,20,08,52,17.80
2011,08,20,08,53,17.80
2011,08,20,08,54,17.90
2011,08,20,08,55,17.90
2011,08,20,08,56,17.90
2011,08,20,08,57,17.90
2011,08,20,08,58,17.90
2011,08,20,08,59,18.00
2011,08,20,09,00,18.00
2011,08,20,09,01,18.10
2011,08,20,09,02,18.10
2011,08,20,09,03,18.10
2011,08,20,09,04,18.20
2011,08,20,09,05,18.20
2011,08,20,09,06,18.30
2011,08,20,09,07,18.30
2011,08,20,09,08,18.30
2011,08,20,09,09,18.40
2011,08,20,09,10,18.40
2011,08,20,09,11,18.50
2011,08,20,09,12,18.50
2011,08,20,09,13,18.50
2011,08,20,09,14,18.50
2011,08,20,09,15,18.60
2011,08,20,09,16,18.60
2011,08,20,09,17,18.60
2011,08,20,09,18,18.70
2011,08,20,09,19,18.70
2011,08,20,09,20,18.80
2011,08,20,09,21,18.80
2011,08,20,09,22,18.90
2011,08,20,09,23,18.90
2011,08,20,09,24,19.00
2011,08,20,09,25,19.00
2011,08,20,09,26,19.00
2011,08,20,09,27,19.10
2011,08,20,09,28,19.10
2011,08,20,09,29,19.10
2011,08,20,09,30,19.20
2011,08,20,09,31,19.20
2011,08,20,09,32,19.20
2011,08,20,09,33,19.30
2011,08,20,09,34,19.30
2011,08,20,09,35,19.40
2011,08,20,09,36,19.40
2011,08,20,09,37,19.50
2011,08,20,09,38,19.50
2011,08,20,09,39,19.60
2011,08,20,09,40,19.60
2011,08,20,09,41,19.60
2011,08,20,09,42,19.70
2011,08,20,09,43,19.70
2011,08,20,09,44,19.70
2011,08,20,09,45,19.70
2011,08,20,09,46,19.80
2011,08,20,09,47,19.80
2011,08,20,09,48,19.80
2011,08,20,09,49,19.80
2011,08,20,09,50,19.80
2011,08,20,09,51,19.90
2011,08,20,09,52,19.90
2011,08,20,09,53,20.00
2011,08,20,09,54,20.00
2011,08,20,09,55,20.00
2011,08,20,09,56,20.10
2011,08,20,09,57,20.10
2011,08,20,09,58,20.10
2011,08,20,09,59,20.20
2011,08,20,10,00,20.20
2011,08,20,10,01,20.30
2011,08,20,10,02,20.30
2011,08,20,10,03,20.30
2011,08,20,10,04,20.30
2011,08,20,10,05,20.30
2011,08,20,10,06,20.30
2011,08,20,10,07,20.30
2011,08,20,10,08,20.40
2011,08,20,10,09,20.40
2011,08,20,10,10,20.40
2011,08,20,10,11,20.40
2011,08,20,10,12,20.50
2011,08,20,10,13,20.50
2011,08,20,10,14,20.60
2011,08,20,10,15,20.70
2011,08,20,10,16,20.70
2011,08,20,10,17,20.70
2011,08,20,10,18,20.80
2011,08,20,10,19,20.80
2011,08,20,10,20,20.80
2011,08,20,10,21,20.90
2011,08,20,10,22,20.90
2011,08,20,10,23,21.00
2011,08,20,10,24,21.00
2011,08,20,10,25,21.00
2011,08,20,10,26,21.10
2011,08,20,10,27,21.10
2011,08,20,10,28,21.20
2011,08,20,10,29,21.20
2011,08,20,10,30,21.20
2011,08,20,10,31,21.20
2011,08,20,10,32,21.20
2011,08,20,10,33,21.30
2011,08,20,10,34,21.30
2011,08,20,10,35,21.30
2011,08,20,10,36,21.30
2011,08,20,10,37,21.30
2011,08,20,10,38,21.30
2011,08,20,10,39,21.30
2011,08,20,10,40,21.30
2011,08,20,10,41,21.30
2011,08,20,10,42,21.30
2011,08,20,10,43,21.30
2011,08,20,10,44,21.30
2011,08,20,10,45,21.30
2011,08,20,10,46,21.30
2011,08,20,10,47,21.20
2011,08,20,10,48,21.30
2011,08,20,10,49,21.30
2011,08,20,10,50,21.30
2011,08,20,10,51,21.30
2011,08,20,10,52,21.40
2011,08,20,10,53,21.50
2011,08,20,10,54,21.50
2011,08,20,10,55,21.60
2011,08,20,10,56,21.70
2011,08,20,10,57,21.80
2011,08,20,10,58,21.80
2011,08,20,10,59,21.90
2011,08,20,11,00,21.90
2011,08,20,11,01,22.00
2011,08,20,11,02,22.00
2011,08,20,11,03,22.10
2011,08,20,11,04,22.10
2011,08,20,11,05,22.20
2011,08,20,11,06,22.20
2011,08,20,11,07,22.30
2011,08,20,11,08,22.30
2011,08,20,11,09,22.30
2011,08,20,11,10,22.30
2011,08,20,11,11,22.30
2011,08,20,11,12,22.40
2011,08,20,11,13,22.40
2011,08,20,11,14,22.40
2011,08,20,11,15,22.40
2011,08,20,11,16,22.40
2011,08,20,11,17,22.40
2011,08,20,11,18,22.40
2011,08,20,11,19,22.50
2011,08,20,11,20,22.50
2011,08,20,11,21,22.60
2011,08,20,11,22,22.60
2011,08,20,11,23,22.60
2011,08,20,11,24,22.70
2011,08,20,11,25,22.70
2011,08,20,11,26,22.70
2011,08,20,11,27,22.70
2011,08,20,11,28,22.70
2011,08,20,11,29,22.70
2011,08,20,11,30,22.70
2011,08,20,11,31,22.70
2011,08,20,11,32,22.80
2011,08,20,11,33,22.80
2011,08,20,11,34,22.80
2011,08,20,11,35,22.80
2011,08,20,11,36,22.90
2011,08,20,11,37,22.90
2011,08,20,11,38,22.90
2011,08,20,11,39,23.00
2011,08,20,11,40,23.10
2011,08,20,11,41,23.10
2011,08,20,11,42,23.20
2011,08,20,11,43,23.20
2011,08,20,11,44,23.30
2011,08,20,11,45,23.30
2011,08,20,11,46,23.30
2011,08,20,11,47,23.30
2011,08,20,11,48,23.30
2011,08,20,11,49,23.30
2011,08,20,11,50,23.30
2011,08,20,11,51,23.30
2011,08,20,11,52,23.40
2011,08,20,11,53,23.40
2011,08,20,11,54,23.40
2011,08,20,11,55,23.30
2011,08,20,11,56,23.30
2011,08,20,11,57,23.30
2011,08,20,11,58,23.30
2011,08,20,11,59,23.30
2011,08,20,12,00,23.30
2011,08,20,12,01,23.30
2011,08,20,12,02,23.40
2011,08,20,12,03,23.40
2011,08,20,12,04,23.50
2011,08,20,12,05,23.50
2011,08,20,12,06,23.60
2011,08,20,12,07,23.70
2011,08,20,12,08,23.70
2011,08,20,12,09,23.80
2011,08,20,12,10,23.80
2011,08,20,12,11,23.80
2011,08,20,12,12,23.80
2011,08,20,12,13,23.80
2011,08,20,12,14,23.80
2011,08,20,12,15,23.80
2011,08,20,12,16,23.80
2011,08,20,12,17,23.80
2011,08,20,12,18,23.80
2011,08,20,12,19,23.90
2011,08,20,12,20,23.90
2011,08,20,12,21,23.90
2011,08,20,12,22,24.00
2011,08,20,12,23,24.00
2011,08,20,12,24,24.10
2011,08,20,12,25,24.10
2011,08,20,12,26,24.20
2011,08,20,12,27,24.20
2011,08,20,12,28,24.20
2011,08,20,12,29,24.20
2011,08,20,12,30,24.20
2011,08,20,12,31,24.20
2011,08,20,12,32,24.20
2011,08,20,12,33,24.20
2011,08,20,12,34,24.20
2011,08,20,12,35,24.30
2011,08,20,12,36,24.30
2011,08,20,12,37,24.40
2011,08,20,12,38,24.50
2011,08,20,12,39,24.50
2011,08,20,12,40,24.50
2011,08,20,12,41,24.60
2011,08,20,12,42,24.60
2011,08,20,12,43,24.60
2011,08,20,12,44,24.60
2011,08,20,12,45,24.60
2011,08,20,12,46,24.60
2011,08,20,12,47,24.60
2011,08,20,12,48,24.60
2011,08,20,12,49,24.70
2011,08,20,12,50,24.70
2011,08,20,12,51,24.70
2011,08,20,12,52,24.70
2011,08,20,12,53,24.60
2011,08,20,12,54,24.60
2011,08,20,12,55,24.70
2011,08,20,12,56,24.70
2011,08,20,12,57,24.70
2011,08,20,12,58,24.70
2011,08,20,12,59,24.70
2011,08,20,13,00,24.80
2011,08,20,13,01,24.80
2011,08,20,13,02,24.80
2011,08,20,13,03,24.80
2011,08,20,13,04,24.90
2011,08,20,13,05,24.90
2011,08,20,13,06,25.00
2011,08,20,13,07,25.00
2011,08,20,13,08,25.10
2011,08,20,13,09,25.10
2011,08,20,13,10,25.10
2011,08,20,13,11,25.10
2011,08,20,13,12,25.10
2011,08,20,13,13,25.10
2011,08,20,13,14,25.10
2011,08,20,13,15,25.10
2011,08,20,13,16,25.10
2011,08,20,13,17,25.10
2011,08,20,13,18,25.20
2011,08,20,13,19,25.20
2011,08,20,13,20,25.30
2011,08,20,13,21,25.30
2011,08,20,13,22,25.40
2011,08,20,13,23,25.50
2011,08,20,13,24,25.60
2011,08,20,13,25,25.60
2011,08,20,13,26,25.60
2011,08,20,13,27,25.70
2011,08,20,13,28,25.70
2011,08,20,13,29,25.70
2011,08,20,13,30,25.70
2011,08,20,13,31,25.60
2011,08,20,13,32,25.60
2011,08,20,13,33,25.60
2011,08,20,13,34,25.70
2011,08,20,13,35,25.70
2011,08,20,13,36,25.80
2011,08,20,13,37,25.80
2011,08,20,13,38,25.90
2011,08,20,13,39,26.00
2011,08,20,13,40,26.00
2011,08,20,13,41,26.10
2011,08,20,13,42,26.20
2011,08,20,13,43,26.20
2011,08,20,13,44,26.30
2011,08,20,13,45,26.30
2011,08,20,13,46,26.30
2011,08,20,13,47,26.40
2011,08,20,13,48,26.50
2011,08,20,13,49,26.60
2011,08,20,13,50,26.70
2011,08,20,13,51,26.80
2011,08,20,13,52,26.80
2011,08,20,13,53,26.80
2011,08,20,13,54,26.80
2011,08,20,13,55,26.80
2011,08,20,13,56,26.80
2011,08,20,13,57,26.80
2011,08,20,13,58,26.70
2011,08,20,13,59,26.70
2011,08,20,14,00,26.70
2011,08,20,14,01,26.70
2011,08,20,14,02,26.60
2011,08,20,14,03,26.60
2011,08,20,14,04,26.50
2011,08,20,14,05,26.50
2011,08,20,14,06,26.60
2011,08,20,14,07,26.60
2011,08,20,14,08,26.50
2011,08,20,14,09,26.50
2011,08,20,14,10,26.40
2011,08,20,14,11,26.40
2011,08,20,14,12,26.40
2011,08,20,14,13,26.50
2011,08,20,14,14,26.50
2011,08,20,14,15,26.60
2011,08,20,14,16,26.70
2011,08,20,14,17,26.70
2011,08,20,14,18,26.70
2011,08,20,14,19,26.80
2011,08,20,14,20,26.80
2011,08,20,14,21,26.90
2011,08,20,14,22,26.90
2011,08,20,14,23,27.00
2011,08,20,14,24,27.10
2011,08,20,14,25,27.20
2011,08,20,14,26,27.20
2011,08,20,14,27,27.20
2011,08,20,14,28,27.30
2011,08,20,14,29,27.30
2011,08,20,14,30,27.40
2011,08,20,14,31,27.40
2011,08,20,14,32,27.40
2011,08,20,14,33,27.40
2011,08,20,14,34,27.30
2011,08,20,14,35,27.30
2011,08,20,14,36,27.20
2011,08,20,14,37,27.20
2011,08,20,14,38,27.20
2011,08,20,14,39,27.20
2011,08,20,14,40,27.20
2011,08,20,14,41,27.30
2011,08,20,14,42,27.30
2011,08,20,14,43,27.30
2011,08,20,14,44,27.30
2011,08,20,14,45,27.30
2011,08,20,14,46,27.20
2011,08,20,14,47,27.30
2011,08,20,14,48,27.30
2011,08,20,14,49,27.30
2011,08,20,14,50,27.30
2011,08,20,14,51,27.30
2011,08,20,14,52,27.40
2011,08,20,14,53,27.50
2011,08,20,14,54,27.60
2011,08,20,14,55,27.70
2011,08,20,14,56,27.80
2011,08,20,14,57,27.80
2011,08,20,14,58,27.80
2011,08,20,14,59,27.80
2011,08,20,15,00,27.80
2011,08,20,15,01,27.80
2011,08,20,15,02,27.80
2011,08,20,15,03,27.70
2011,08,20,15,04,27.70
2011,08,20,15,05,27.70
2011,08,20,15,06,27.70
2011,08,20,15,07,27.70
2011,08,20,15,08,27.60
2011,08,20,15,09,27.60
2011,08,20,15,10,27.50
2011,08,20,15,11,27.50
2011,08,20,15,12,27.40
2011,08,20,15,13,27.40
2011,08,20,15,14,27.40
2011,08,20,15,15,27.40
2011,08,20,15,16,27.40
2011,08,20,15,17,27.30
2011,08,20,15,18,27.30
2011,08,20,15,19,27.30
2011,08,20,15,20,27.40
2011,08,20,15,21,27.40
2011,08,20,15,22,27.50
2011,08,20,15,23,27.60
2011,08,20,15,24,27.70
2011,08,20,15,25,27.70
2011,08,20,15,26,27.80
2011,08,20,15,27,27.90
2011,08,20,15,28,28.00
2011,08,20,15,29,28.10
2011,08,20,15,30,28.20
2011,08,20,15,31,28.20
2011,08,20,15,32,28.30
2011,08,20,15,33,28.40
2011,08,20,15,34,28.40
2011,08,20,15,35,28.50
2011,08,20,15,36,28.50
2011,08,20,15,37,28.50
2011,08,20,15,38,28.60
2011,08,20,15,39,28.60
2011,08,20,15,40,28.70
2011,08,20,15,41,28.70
2011,08,20,15,42,28.80
2011,08,20,15,43,28.80
2011,08,20,15,44,28.80
2011,08,20,15,45,28.80
2011,08,20,15,46,28.70
2011,08,20,15,47,28.70
2011,08,20,15,48,28.60
2011,08,20,15,49,28.60
2011,08,20,15,50,28.50
2011,08,20,15,51,28.50
2011,08,20,15,52,28.50
2011,08,20,15,53,28.50
2011,08,20,15,54,28.60
2011,08,20,15,55,28.60
2011,08,20,15,56,28.70
2011,08,20,15,57,28.80
2011,08,20,15,58,28.90
2011,08,20,15,59,28.90
2011,08,20,16,00,29.00
2011,08,20,16,01,29.10
2011,08,20,16,02,29.10
2011,08,20,16,03,29.10
2011,08,20,16,04,29.10
2011,08,20,16,05,29.10
2011,08,20,16,06,29.10
2011,08,20,16,07,29.00
2011,08,20,16,08,29.00
2011,08,20,16,09,29.00
2011,08,20,16,10,28.90
2011,08,20,16,11,28.90
2011,08,20,16,12,28.90
2011,08,20,16,13,28.90
2011,08,20,16,14,28.80
2011,08,20,16,15,28.80
2011,08,20,16,16,28.80
2011,08,20,16,17,28.80
2011,08,20,16,18,28.80
2011,08,20,16,19,28.70
2011,08,20,16,20,28.70
2011,08,20,16,21,28.70
2011,08,20,16,22,28.60
2011,08,20,16,23,28.60
2011,08,20,16,24,28.60
2011,08,20,16,25,28.50
2011,08,20,16,26,28.50
2011,08,20,16,27,28.50
2011,08,20,16,28,28.40
2011,08,20,16,29,28.40
2011,08,20,16,30,28.40
2011,08,20,16,31,28.40
2011,08,20,16,32,28.30
2011,08,20,16,33,28.30
2011,08,20,16,34,28.30
2011,08,20,16,35,28.30
2011,08,20,16,36,28.30
2011,08,20,16,37,28.40
2011,08,20,16,38,28.40
2011,08,20,16,39,28.40
2011,08,20,16,40,28.50
2011,08,20,16,41,28.50
2011,08,20,16,42,28.50
2011,08,20,16,43,28.40
2011,08,20,16,44,28.40
2011,08,20,16,45,28.30
2011,08,20,16,46,28.30
2011,08,20,16,47,28.30
2011,08,20,16,48,28.40
2011,08,20,16,49,28.40
2011,08,20,16,50,28.40
2011,08,20,16,51,28.40
2011,08,20,16,52,28.40
2011,08,20,16,53,28.50
2011,08,20,16,54,28.40
2011,08,20,16,55,28.40
2011,08,20,16,56,28.40
2011,08,20,16,57,28.40
2011,08,20,16,58,28.40
2011,08,20,16,59,28.40
2011,08,20,17,00,28.40
2011,08,20,17,01,28.40
2011,08,20,17,02,28.40
2011,08,20,17,03,28.40
2011,08,20,17,04,28.50
2011,08,20,17,05,28.50
2011,08,20,17,06,28.60
2011,08,20,17,07,28.60
2011,08,20,17,08,28.70
2011,08,20,17,09,28.70
2011,08,20,17,10,28.80
2011,08,20,17,11,28.80
2011,08,20,17,12,28.90
2011,08,20,17,13,28.80
2011,08,20,17,14,28.80
2011,08,20,17,15,28.70
2011,08,20,17,16,28.70
2011,08,20,17,17,28.60
2011,08,20,17,18,28.60
2011,08,20,17,19,28.60